[[{"header":{"parameterUnit":"m.s-1","parameterCategory":1,"la1":30.2991,"la2":30.254,"lo1":-89.0895,"lo2":-89.0444,"dy":0.0017,"dx":0.0017,"nx":28,"ny":28,"refTime":"2025-04-19T21:00:00:Z","depth":0,"parameterNumber":2,"parameterNumberName":"U-component_of_WINDS"},"data":[0,0,0,0,0,0,0,0,0,0,0,0,0,0,0,0,0,0,0,0,0,0,0,0,0,0,0,0,0,0,0,0,0,0,0,0,0,0,0,0,0,0,0,0,0,0,0,0,0,0,0,0,0,0,0,0,0,0,-5.1488,-5.1489,0,-5.1573,-5.1574,-5.1575,-5.1548,-5.1546,-5.1545,-5.1543,-5.1628,-5.1631,-5.1635,0,0,0,0,0,0,0,0,0,0,0,0,0,-5.1299,-5.1303,-5.1487,-5.1489,-5.149,-5.1573,-5.1574,-5.1575,-5.1549,-5.1546,-5.1544,-5.1542,-5.1626,-5.1631,-5.1636,0,0,0,0,0,0,0,0,0,0,0,0,0,-5.1382,-5.1304,-5.1487,-5.1487,-5.1487,-5.1572,-5.1574,-5.1575,-5.1549,-5.1546,-5.1544,-5.1541,-5.1625,-5.1631,-5.1636,-5.1726,0,0,-5.1654,-5.1657,0,0,0,0,0,0,0,0,-5.1378,-5.1389,-5.1486,-5.1487,-5.1488,-5.1547,-5.1538,-5.1626,-5.155,-5.1526,-5.1543,-5.154,-5.1603,-5.161,-5.1632,-5.173,-5.1734,-5.1655,-5.1658,-5.1661,-5.1663,0,0,0,0,0,0,0,-5.1372,-5.1385,-5.1521,-5.1487,-5.1488,-5.1481,-5.149,-5.1555,-5.1578,-5.1527,-5.1526,-5.1536,-5.1603,-5.1627,-5.1634,-5.1735,-5.1655,-5.166,-5.1664,-5.1666,-5.1909,-5.1912,0,0,0,0,0,0,-5.1366,-5.1381,-5.1518,-5.1524,-5.1425,-5.1487,-5.1497,-5.1531,-5.1577,-5.1582,-5.1539,-5.1535,-5.1618,-5.1627,-5.1637,-5.1743,-5.1661,-5.1666,-5.167,-5.1907,-5.191,-5.1913,0,0,0,0,0,0,-5.1362,-5.1378,-5.1515,-5.1452,-5.1469,-5.1493,-5.1531,-5.1534,-5.1557,-5.1586,-5.159,-5.1559,-5.1616,-5.1629,-5.1704,-5.1746,-5.1669,-5.1674,-5.1903,-5.1908,-5.1912,-5.1958,0,0,0,0,0,0,-5.1357,-5.1377,-5.1412,-5.1453,-5.1472,-5.1582,-5.1534,-5.1537,-5.1568,-5.1564,-5.1606,-5.161,-5.1615,-5.1695,-5.171,-5.1753,-5.1679,-5.1899,-5.1905,-5.191,-5.1953,-5.1964,-5.1973,0,0,0,0,0,-5.135,-5.1422,-5.1414,-5.1431,-5.1517,-5.1584,-5.1595,-5.16,-5.1572,-5.1606,-5.1624,-5.1608,-5.174,-5.1703,-5.1719,-5.1765,-5.1897,-5.1903,-5.191,-5.1949,-5.1962,-5.1973,0,0,0,0,0,0,-5.1385,-5.1427,-5.1419,-5.1507,-5.1542,-5.158,-5.1624,-5.1614,-5.1658,-5.1652,-5.1656,-5.1666,-5.1743,-5.1762,-5.172,-5.1853,-5.1814,-5.1824,-5.1838,-5.185,-5.186,-5.1853,-5.1684,0,0,0,0,0,-5.1403,-5.1455,-5.1489,-5.1563,-5.1581,-5.16,-5.1629,-5.163,-5.1667,-5.1681,-5.1705,-5.174,-5.1789,-5.1821,-5.1868,-5.1957,-5.1964,-5.1996,-5.2006,-5.2014,-5.2021,-5.2067,-5.2081,-5.1935,-5.1935,-5.1935,0,0,-5.144,-5.147,-5.1502,-5.157,-5.1598,-5.165,-5.1612,-5.167,-5.1708,-5.169,-5.1762,-5.1781,-5.182,-5.1902,-5.194,-5.192,-5.2064,-5.2022,-5.2028,-5.2032,-5.2076,-5.2089,-5.2102,-5.194,-5.1939,-5.1938,0,0,-5.1534,-5.1563,-5.1627,-5.1655,-5.1698,-5.171,-5.1725,-5.1764,-5.1776,-5.1849,-5.1836,-5.1881,-5.1966,-5.1994,-5.202,-5.2125,-5.2111,-5.214,-5.2191,-5.2236,-5.2247,-5.2258,-5.2293,-5.2305,-5.2149,-5.2149,-5.2149,0,-5.1575,-5.1655,-5.1661,-5.1719,-5.1748,-5.1735,-5.1799,-5.1826,-5.1881,-5.1901,-5.188,-5.1985,-5.2011,-5.2098,-5.2124,-5.2146,-5.2162,-5.2134,-5.2246,-5.2256,-5.2265,-5.2299,-5.2312,-5.2152,-5.2152,-5.2151,-5.2151,0,-5.1701,-5.1757,-5.1803,-5.1857,-5.1892,-5.1953,-5.1967,-5.2001,-5.1999,-5.2013,-5.2087,-5.2118,-5.2169,-5.2191,-5.219,-5.2278,-5.2264,-5.2245,-5.2204,-5.2282,-5.2313,-5.2327,-5.2156,-5.2155,-5.2154,-5.2154,0,0,-5.1819,-5.1875,-5.1892,-5.1915,-5.1961,-5.2004,-5.2063,-5.2115,-5.2143,-5.2182,-5.2231,-5.2303,-5.2285,-5.2314,-5.2316,-5.2356,-5.2434,-5.2331,-5.2331,-5.2346,-5.253,-5.2543,-5.2558,-5.2426,-5.2429,-5.2431,-5.2526,0,-5.1915,-5.202,-5.2027,-5.2122,-5.2172,-5.216,-5.2212,-5.2245,-5.2259,-5.2303,-5.2319,-5.2369,-5.2342,-5.2359,-5.2399,-5.2416,-5.247,-5.241,-5.2469,-5.2471,-5.2457,-5.2574,-5.2588,-5.2676,-5.2538,-5.254,-5.2542,0,-5.2041,-5.2083,-5.2183,-5.2221,-5.2242,-5.2288,-5.2335,-5.2378,-5.2415,-5.2423,-5.2455,-5.2451,-5.2511,-5.2471,-5.2552,-5.2511,-5.2536,-5.2548,-5.2552,-5.2555,-5.2509,-5.2578,-5.2705,-5.2717,-5.2562,-5.256,-5.2559,0,-5.2113,-5.2196,-5.2266,-5.2287,-5.2333,-5.2365,-5.2386,-5.242,-5.245,-5.2492,-5.2511,-5.2558,-5.2584,-5.262,-5.2629,-5.2599,-5.2709,-5.267,-5.2715,-5.2715,-5.2737,-5.2735,-5.2867,-5.2758,-5.2758,-5.2757,-5.2757,0,-5.2218,-5.2279,-5.2298,-5.2341,-5.2408,-5.2416,-5.2482,-5.25,-5.2531,-5.2576,-5.257,-5.2612,-5.2622,-5.2666,-5.2673,-5.2738,-5.275,-5.2757,-5.2758,-5.2756,-5.2755,-5.277,-5.2764,-5.2761,-5.276,-5.276,-5.2759,0,-5.231,-5.2325,-5.24,-5.2438,-5.2449,-5.2496,-5.2528,-5.2568,-5.2582,-5.2639,-5.2653,-5.2675,-5.2726,-5.2739,-5.2801,-5.2805,-5.2881,-5.2878,-5.2869,-5.2867,-5.2911,-5.2906,-5.3055,-5.3074,-5.2955,-5.2956,-5.2957,0,-5.2375,-5.2421,-5.2464,-5.2493,-5.2516,-5.2564,-5.2595,-5.2604,-5.2635,-5.2681,-5.2715,-5.2766,-5.2806,-5.2889,-5.2909,-5.2956,-5.2951,-5.3001,-5.2958,-5.2955,-5.2949,-5.2945,-5.2949,-5.3008,-5.3009,-5.301,-5.3011,0,-5.2487,-5.2492,-5.2537,-5.2584,-5.2621,-5.2659,-5.2694,-5.2719,-5.2733,-5.2769,-5.2821,-5.2853,-5.2916,-5.2965,-5.3012,-5.3032,-5.3023,-5.3025,-5.3037,-5.3034,-5.3026,-5.3029,-5.2888,-5.302,-5.3019,-5.3019,-5.3018,-5.3018,-5.2566,-5.2606,-5.2641,-5.2691,-5.2719,-5.2752,-5.2791,-5.281,-5.2854,-5.2906,-5.2909,-5.2965,-5.3,-5.3062,-5.3085,-5.3128,-5.3113,-5.3132,-5.3136,-5.314,-5.3142,-5.3022,-5.3137,-5.3137,-5.3137,-5.3136,-5.3136,0,-5.2676,-5.2698,-5.2744,-5.2794,-5.2832,-5.2822,-5.2861,-5.2894,-5.2944,-5.2977,-5.3017,-5.3077,-5.3125,-5.3149,-5.3196,-5.3226,-5.3223,-5.3238,-5.3235,-5.3239,-5.3154,-5.3138,-5.324,-5.324,-5.324,-5.324,-5.324,-5.324,-5.2738,-5.2804,-5.2813,-5.2893,-5.2915,-5.297,-5.2993,-5.3023,-5.3049,-5.3116,-5.3156,-5.3172,-5.3201,-5.3251,-5.3294,-5.33,-5.3316,-5.3332,-5.3336,-5.3256,-5.3245,-5.3235,-5.3219,-5.3337,-5.3337,-5.3417,-5.3417,-5.3418]},{"header":{"parameterUnit":"m.s-1","parameterCategory":1,"la1":30.2991,"la2":30.254,"lo1":-89.0895,"lo2":-89.0444,"dy":0.0017,"dx":0.0017,"nx":28,"ny":28,"refTime":"2025-04-19T21:00:00:Z","depth":0,"parameterNumber":3,"parameterNumberName":"V-component_of_WINDS"},"data":[0,0,0,0,0,0,0,0,0,0,0,0,0,0,0,0,0,0,0,0,0,0,0,0,0,0,0,0,0,0,0,0,0,0,0,0,0,0,0,0,0,0,0,0,0,0,0,0,0,0,0,0,0,0,0,0,0,0,4.4793,4.4794,0,4.4891,4.4892,4.4893,4.4886,4.4885,4.4883,4.4882,4.4977,4.4981,4.4985,0,0,0,0,0,0,0,0,0,0,0,0,0,4.4598,4.4602,4.4793,4.4795,4.4796,4.489,4.4892,4.4893,4.4886,4.4885,4.4883,4.4881,4.4976,4.498,4.4985,0,0,0,0,0,0,0,0,0,0,0,0,0,4.4688,4.4603,4.4793,4.4804,4.4806,4.489,4.4892,4.4893,4.4887,4.4885,4.4882,4.4881,4.4974,4.498,4.4986,4.5064,0,0,4.5003,4.5006,0,0,0,0,0,0,0,0,4.4683,4.4695,4.4801,4.4803,4.4806,4.4874,4.4858,4.4951,4.4887,4.4856,4.4882,4.4879,4.4944,4.4952,4.4975,4.5068,4.5073,4.5004,4.5007,4.501,4.5011,0,0,0,0,0,0,0,4.4676,4.4691,4.4832,4.4803,4.4805,4.4803,4.4813,4.4875,4.4911,4.4858,4.4858,4.487,4.4945,4.497,4.4977,4.5074,4.5004,4.5009,4.5012,4.5015,4.5237,4.5239,0,0,0,0,0,0,4.4668,4.4685,4.4829,4.4835,4.4738,4.4808,4.482,4.4854,4.491,4.4917,4.4872,4.4869,4.4961,4.4971,4.4981,4.5077,4.501,4.5015,4.5018,4.5235,4.5238,4.524,0,0,0,0,0,0,4.4664,4.4681,4.4825,4.476,4.4778,4.4814,4.4853,4.4857,4.4882,4.492,4.4926,4.4891,4.4959,4.4972,4.5044,4.508,4.5018,4.5023,4.5232,4.5235,4.5239,4.5269,0,0,0,0,0,0,4.4659,4.468,4.4711,4.4761,4.4782,4.4887,4.4855,4.4861,4.4892,4.489,4.4939,4.4945,4.4959,4.5035,4.505,4.5087,4.5028,4.5229,4.5233,4.5238,4.5265,4.5273,4.528,0,0,0,0,0,4.4652,4.4714,4.4712,4.473,4.4821,4.489,4.4901,4.4917,4.4895,4.4926,4.4951,4.4944,4.5074,4.5043,4.5059,4.5098,4.5226,4.5232,4.5237,4.5261,4.5271,4.528,0,0,0,0,0,0,4.4665,4.4721,4.4719,4.48,4.4841,4.4888,4.4928,4.4927,4.4972,4.4968,4.4984,4.4995,4.5067,4.5089,4.5054,4.5177,4.5147,4.5156,4.516,4.517,4.5177,4.517,4.5032,0,0,0,0,0,4.4678,4.473,4.4775,4.4842,4.4863,4.4892,4.4922,4.4931,4.4972,4.4989,4.5018,4.5058,4.5108,4.514,4.5188,4.5268,4.5278,4.5303,4.5311,4.5317,4.5324,4.5369,4.538,4.5258,4.5258,4.5258,0,0,4.4704,4.4741,4.4773,4.4846,4.4878,4.4931,4.4906,4.4962,4.5001,4.4997,4.5066,4.509,4.5135,4.5211,4.5246,4.5232,4.536,4.5324,4.5328,4.5333,4.5375,4.5387,4.5397,4.5262,4.5261,4.5261,0,0,4.4779,4.4812,4.4872,4.4905,4.4955,4.4974,4.4989,4.5037,4.5053,4.5124,4.5122,4.5167,4.5252,4.5285,4.5312,4.5401,4.5396,4.5416,4.5456,4.5499,4.5508,4.5517,4.5548,4.5559,4.5423,4.5423,4.5423,0,4.4805,4.4885,4.4902,4.496,4.4992,4.4993,4.5053,4.5083,4.5145,4.5167,4.5151,4.5259,4.5289,4.5373,4.5395,4.5417,4.5433,4.541,4.5506,4.5515,4.5523,4.5553,4.5565,4.5425,4.5425,4.5425,4.5425,0,4.4915,4.4971,4.5013,4.5075,4.5112,4.517,4.5195,4.523,4.5236,4.5256,4.5328,4.5365,4.542,4.5441,4.5446,4.5526,4.5516,4.5503,4.5473,4.5536,4.5565,4.5577,4.5428,4.5427,4.5427,4.5426,0,0,4.5,4.5072,4.5087,4.5116,4.5171,4.5214,4.5272,4.5328,4.5358,4.5401,4.5449,4.5522,4.5511,4.5542,4.5551,4.5589,4.5657,4.5571,4.5572,4.5586,4.5747,4.5756,4.577,4.5654,4.5656,4.5658,4.5743,0,4.5081,4.5186,4.5203,4.5295,4.5346,4.5348,4.5398,4.5437,4.5458,4.5504,4.5526,4.5578,4.5559,4.5578,4.5616,4.564,4.5689,4.5635,4.5698,4.5701,4.5687,4.5784,4.5795,4.5873,4.5754,4.5756,4.5758,0,4.5188,4.5236,4.5334,4.5383,4.5405,4.545,4.5503,4.5548,4.5591,4.5604,4.564,4.5645,4.5704,4.5672,4.5754,4.5716,4.5743,4.576,4.5763,4.5769,4.5733,4.5793,4.5898,4.591,4.5775,4.5774,4.5773,0,4.5241,4.533,4.54,4.5424,4.5483,4.5515,4.554,4.5582,4.5615,4.5661,4.5682,4.5734,4.5762,4.5801,4.5819,4.5794,4.59,4.5869,4.5911,4.5911,4.5933,4.5931,4.6044,4.5951,4.5951,4.595,4.595,0,4.5329,4.5389,4.5424,4.5467,4.5534,4.5553,4.5617,4.5642,4.568,4.5726,4.573,4.5774,4.5795,4.5842,4.5856,4.5922,4.5934,4.5945,4.5948,4.5945,4.5944,4.5963,4.5958,4.5954,4.5953,4.5952,4.5952,0,4.5399,4.5425,4.5502,4.5552,4.5566,4.5613,4.5655,4.5696,4.5717,4.5777,4.5792,4.5824,4.5879,4.5902,4.5969,4.5978,4.6054,4.6052,4.6039,4.604,4.6081,4.6077,4.621,4.6228,4.6123,4.6124,4.6125,0,4.5454,4.55,4.5555,4.5588,4.5615,4.5667,4.5702,4.5722,4.5757,4.5811,4.5845,4.5901,4.5946,4.6034,4.6063,4.6114,4.6114,4.6157,4.6122,4.6117,4.6115,4.6112,4.6117,4.6164,4.6165,4.6166,4.6166,0,4.5548,4.5559,4.5608,4.5663,4.5704,4.5747,4.579,4.5816,4.5842,4.5881,4.5939,4.5974,4.6044,4.6099,4.6152,4.6177,4.6176,4.6177,4.619,4.6187,4.6177,4.6183,4.6057,4.6174,4.6173,4.6173,4.6172,4.6172,4.5612,4.5653,4.5699,4.5754,4.5789,4.5828,4.587,4.5897,4.5946,4.6005,4.6013,4.6075,4.6117,4.6189,4.6216,4.6264,4.6252,4.627,4.6275,4.6279,4.6282,4.617,4.6273,4.6273,4.6273,4.6273,4.6273,0,4.5706,4.5736,4.5787,4.5847,4.589,4.5887,4.5934,4.597,4.6025,4.6065,4.6111,4.6177,4.623,4.6264,4.6317,4.6349,4.635,4.6362,4.636,4.6366,4.6289,4.6273,4.636,4.636,4.636,4.636,4.636,4.636,4.576,4.583,4.5846,4.5933,4.5962,4.6024,4.6051,4.6087,4.612,4.6194,4.6239,4.6261,4.6299,4.6355,4.6404,4.6412,4.6432,4.6445,4.6452,4.638,4.6371,4.6362,4.6347,4.6449,4.6449,4.6525,4.6526,4.6526]}]]